Regional Weather Roundup
Issued by NWS Little Rock, AR

Home | Current Version | Previous Version | Text Only | Print | Product List | Glossary Off
Versions: 1 2 3 4 5 6 7 8 9 10 11 12 13 14 15 16 17 18 19 20 21 22 23 24 25 26 27 28 29 30 31 32 33 34 35 36 37 38 39 40 41 42 43 44 45 46 47 48 49 50

000
ASUS44 KLZK 051805
RWRLZK

WEATHER ROUNDUP FOR ARKANSAS
NATIONAL WEATHER SERVICE LITTLE ROCK AR
100 PM CDT THU MAY 05 2016

NOTE: "FAIR" INDICATES FEW OR NO CLOUDS BELOW 12,000 FEET WITH NO
SIGNIFICANT WEATHER AND/OR OBSTRUCTIONS TO VISIBILITY.

ARZ001-003-010-029-051900-
NORTHWEST ARKANSAS

CITY           SKY/WX    TMP DP  RH WIND       PRES   REMARKS
FAYETTEVILLE   SUNNY     70  44  39 NW7G22    30.08F
6HR MIN TEMP:  40; 6HR MAX TEMP:  71;

FORT SMITH     SUNNY     75  37  25 N9G21     30.06F
6HR MIN TEMP:  49; 6HR MAX TEMP:  76;

HARRISON       SUNNY     71  39  31 NW12G24   30.05F
6HR MIN TEMP:  49; 6HR MAX TEMP:  71;

BENTONVILLE    SUNNY     70  39  32 N8G18     30.09F
6HR MIN TEMP:  45; 6HR MAX TEMP:  70;

ROGERS         SUNNY     69  42  37 NW10G17   30.08F
6HR MIN TEMP:  43; 6HR MAX TEMP:  70;

SILOAM SPGS    SUNNY     70  43  37 N12G21    30.10F
6HR MIN TEMP:  43; 6HR MAX TEMP:  70;

HIGHFILL       SUNNY     73  42  32 N14G20    30.08F
6HR MIN TEMP:  47; 6HR MAX TEMP:  74;

SPRINGDALE     SUNNY     70  43  37 N10       30.09F
$$

ARZ004-005-016-051900-
NORTH CENTRAL ARKANSAS

CITY           SKY/WX    TMP DP  RH WIND       PRES   REMARKS
BATESVILLE     SUNNY     72  37  28 N8G18     30.01S
6HR MIN TEMP:  50; 6HR MAX TEMP:  72;

FLIPPIN        SUNNY    N/A N/A N/A N15       30.01S
MTN HOME       SUNNY     70  36  28 NW9G18    30.02F
6HR MIN TEMP:  48; 6HR MAX TEMP:  70;

$$

ARZ040-041-051900-
WEST CENTRAL ARKANSAS

CITY           SKY/WX    TMP DP  RH WIND       PRES   REMARKS
MENA           SUNNY     73  41  31 NW7       30.06F
MOUNT IDA      SUNNY     74  40  29 CALM      30.02F
6HR MIN TEMP:  45; 6HR MAX TEMP:  74;

$$

ARZ009-017-025-026-028-051900-
NORTHEAST ARKANSAS

CITY           SKY/WX    TMP DP  RH WIND       PRES   REMARKS
CORNING          N/A     68  32  26 N14G24    29.99F
JONESBORO      SUNNY     69  34  27 N12G23    29.98F
6HR MIN TEMP:  52; 6HR MAX TEMP:  70;

NEWPORT        SUNNY     71  36  27 N17G23    30.00F
6HR MIN TEMP:  52; 6HR MAX TEMP:  71;

WALNUT RIDGE   SUNNY     70  34  26 N13G21    29.99F
6HR MIN TEMP:  48; 6HR MAX TEMP:  70;

BLYTHEVILLE    SUNNY     70  43  37 N20G26    29.98S
6HR MIN TEMP:  50; 6HR MAX TEMP:  70;

NW BLYTHEVILLE SUNNY     68  39  34 N14G25    29.97F
$$

ARZ022-023-033-042-044-051900-
CENTRAL ARKANSAS

CITY           SKY/WX    TMP DP  RH WIND       PRES   REMARKS
LITTLE ROCK    MOSUNNY   75  41  29 NW15G22   30.01F
6HR MIN TEMP:  57; 6HR MAX TEMP:  76;

N LITTLE ROCK    N/A     71  43  36 N8G18     30.00F
6HR MIN TEMP:  54; 6HR MAX TEMP:  71;

JACKSONVILLE   SUNNY     74  42  31 NW12G21   29.99F
6HR MIN TEMP:  48; 6HR MAX TEMP:  74;

SEARCY         SUNNY     73  43  33 N14       30.01F
6HR MIN TEMP:  48; 6HR MAX TEMP:  73;

HOT SPRINGS    SUNNY     74  38  27 VRB6      30.03F
6HR MIN TEMP:  50; 6HR MAX TEMP:  74;

RUSSELLVILLE   SUNNY     72  44  36 W12       30.02F
6HR MIN TEMP:  46; 6HR MAX TEMP:  73;

CLINTON        FAIR      73  39  29 NW16G22   30.02F
$$

ARZ036-051900-
EAST ARKANSAS

CITY           SKY/WX    TMP DP  RH WIND       PRES   REMARKS
WEST MEMPHIS   SUNNY     69  38  32 N15G30    29.96F
6HR MIN TEMP:  52; 6HR MAX TEMP:  69;

$$

ARZ050-053-066-070-073-051900-
SOUTHWEST ARKANSAS

CITY           SKY/WX    TMP DP  RH WIND       PRES   REMARKS
ARKADELPHIA    FAIR      73  47  39 N8        30.03F
6HR MIN TEMP:  52; 6HR MAX TEMP:  73;

CAMDEN         SUNNY     73  39  29 N8        30.02F
TEXARKANA      SUNNY     74  43  32 NW7       30.05F
6HR MIN TEMP:  54; 6HR MAX TEMP:  75;

EL DORADO      SUNNY     74  44  34 NW14G20   30.02F
6HR MIN TEMP:  50; 6HR MAX TEMP:  74;

DE QUEEN         N/A     75  46  35 NW5       30.03F
6HR MIN TEMP:  45; 6HR MAX TEMP:  75;

$$

ARZ056-057-069-051900-
SOUTHEAST ARKANSAS

CITY           SKY/WX    TMP DP  RH WIND       PRES   REMARKS
PINE BLUFF     SUNNY     72  40  31 NW15G22   30.01F
6HR MIN TEMP:  52; 6HR MAX TEMP:  72;

STUTTGART      SUNNY     72  45  37 NW12      30.00F
6HR MIN TEMP:  54; 6HR MAX TEMP:  72;

MONTICELLO     SUNNY     73  37  27 NW7       30.00F
6HR MIN TEMP:  51; 6HR MAX TEMP:  74;


$$





USA.gov is the U.S. government's official web portal to all federal, state and local government web resources and services.